Kihei, HI (96753)

1:39 AM HST on July 07, 2015 (GMT -1000)
Kihei | | Change Station
CLOSE
Current Station
Personal Weather Station
Location: Kihei, HI
Elevation: 23 ft
Nearby Weather Stations
Active Advisory: High Surf Advisory

Elev 23 ft 20.74 °N, 156.46 °W | Updated 2 minutes ago

Scattered Clouds
Scattered Clouds
73.6 °F
Feels Like 74 °F
N
0.0
Wind Variable Wind from East
Gusts 1.0 mph

Today
High -- | Low -- °F
--% Chance of Precip.
Yesterday
High -- | Low -- °F
Precip. -- in
5:50 AM 7:10 PM
Waning Gibbous, 65% visible
Pressure 30.00 in
Visibility 10.0 miles
Clouds Scattered Clouds 6000 ft
Heat Index 74 °F
Dew Point 66 °F
Humidity 77%
Rainfall 0.00 in
Snow Depth Not available.
UV 0 out of 12
Pollen Not available.
Air Quality Not available.
Flu Activity Not available.
METAR PHOG 071054Z AUTO 05014G21KT 10SM SCT060 26/19 A2998 RMK AO2 SLP158 T02560194 TSNO

More Conditions Fewer Conditions

Pressure 30.00 in
Visibility 10.0 miles
Clouds Scattered Clouds 6000 ft
Heat Index 74 °F
Dew Point 66 °F
Humidity 77%
Rainfall 0.00 in
Snow Depth Not available.
UV 0 out of 12
Pollen Not available.
Air Quality Not available.
Flu Activity Not available.
METAR PHOG 071054Z AUTO 05014G21KT 10SM SCT060 26/19 A2998 RMK AO2 SLP158 T02560194 TSNO

More Conditions Fewer Conditions

10-Day Weather Forecast

×

Almanac

Astronomy

Jul. 07, 2015 Rise Set
Actual Time
Civil Twilight
Nautical Twilight
Astronomical Twilight
Moon
Length of Visible Light
Length of Day
Tomorrow will be .
, % of the Moon is Illuminated

Today's Extremes

State Highs State Lows

Community

WunderPhotos

Upload Photos

1,835,768 photos uploaded!

WunderBlogs® & News

Nearby

Air Quality

  Air Quality AQ Index Pollutant
Not available.

Snow Depth

Station Depth Elevation

Earthquake Activity

City Distance Mag. Time & Date
Minimum magnitude displayed is 2.5.

Coastal Water Temperatures

Place Temperature

Stations

Nearby Weather Stations

Station Location Temp. Windchill Dew Point Humidity Wind Precip. Elev Updated Type
                   
High Surf Advisory
Statement as of 3:32 PM HST on July 06, 2015

... High surf advisory in effect until 6 PM HST Wednesday...

The National Weather Service in Honolulu has issued a high surf
advisory... which is in effect until 6 PM HST Wednesday.

* Surf... along south facing shores... 6 to 9 feet through the
evening and rising to 7 to 10 feet tonight and Tuesday.

* Timing... rising through tonight... peaking Tuesday... and
remaining elevated into Wednesday.

* Impacts... moderate... expect strong breaking waves... shore
break... and strong longshore and rip currents making swimming
difficult and dangerous.


Precautionary/preparedness actions...

Beachgoers... swimmers... and surfers should heed all advice given
by ocean safety officials and exercise caution. Boaters should
expect recreational surfers and utilizing Harbor channels to
access surfing areas.